Location: Misciano
(43.5000°N, 11.9500°E)
Time: 05:46:58
(UTC+00:00)

Cosmos 2061 Rocket - Pass Details

Date: 13 August 2020
Orbit: 966 x 1012 km, 82.9° (Epoch: 23 September)

Event Time Altitude Azimuth Distance (km) Brightness Sun altitude
Exits shadow 21:37:25 68° 209° (SSW) 1,042 3.9 -27.9°
Maximum altitude 21:38:16 81° 278° (W) 984 3.9 -27.9°
Drops below altitude 10° 21:44:30 10° 6° (N) 2,716 7.0 -28.4°
Sets 21:47:01 0° 8° (N) 3,668 7.8 -28.6°
